LiveATC.Net - Listen to live air traffic control over the Internet!


ICAO: KOAJ  IATA: OAJ   Airport: Albert J Ellis Airport
City: Jacksonville   State/Province: North Carolina
Country: United States   Continent: North America
KOAJ METAR Weather: KOAJ 281356Z 30005KT 10SM FEW021 SCT033 26/19 A2990 RMK AO2 SLP126 T02560189
KOAJ Flight Activity (FlightAware)
KOAJ Airport Info   (iFlightPlanner)
KOAJ VFR Sectional Chart   (iFlightPlanner) 
KOAJ IFR Low Altitude Chart   (iFlightPlanner) 
KOAJ IFR High Altitude Chart   (iFlightPlanner) 

KOAJ Gnd/Twr
Feed Status: UP   Listeners: 0
Listen in your browser - HTML5 player (in browser, HTML5)
Click here to listen with your own player (launches your MP3 player)
Archive Access: KOAJ Gnd/Twr
FacilityFrequency
Ellis Ground125.400
Ellis Tower132.650

NOTICE

Unauthorized use prohibited. See LiveATC.net Terms of Service


Airport/ARTCC Code
Frequency Search
(e.g., 124.400, 128.75)
Site-wide search
 


Browse Feeds
Top 50 Feeds
HF Oceanic Feeds
Coverage Map
Bad Weather Areas

LiveATC FAQ
Offer LiveATC feed
Contact LiveATC.net
Press Inquiries

LiveATC on iPhone
LiveATC on Android

LiveATC Mobile
(Mobile browser)

ATC Audio Archives
Interesting Recordings

LiveATC Forums


Home Page
About LiveATC.net


Terms of Use
Privacy Policy

AIRMETs/SIGMETs

FAA Airport Status
NAS Status
Arrival Demand


Server Software By:
Icecast.org
Liquidsoap